Location: Borger
(52.9222°N, 6.7926°E)
Time: 05:31:21
(UTC+00:00)

IRS-1C Rocket - Pass Details

Date: 15 May 2026
Orbit: 798 x 805 km, 98.7° (Epoch: 6 June)

Event Time Altitude Azimuth Distance (km) Brightness Sun altitude
Exits shadow 20:27:08 - 146° (SE) 2,427 5.9 -8.0°
Reaches altitude 10° 20:27:15 10° 146° (SE) 2,382 5.9 -8.0°
Maximum altitude 20:32:25 59° 68° (ENE) 927 4.3 -8.5°
Drops below altitude 10° 20:37:37 10° 350° (N) 2,394 7.6 -9.1°
Sets 20:39:58 0° 347° (NNW) 3,328 8.6 -9.3°
